Time,TemperatureF,DewpointF,PressureIn,WindDirection,WindDirectionDegrees,WindSpeedMPH,WindSpeedGustMPH,Humidity,HourlyPrecipIn,Conditions,Clouds,dailyrainin,SoftwareType,DateUTC
2013-05-26 00:02:00,35.0,34.0,29.75,NNW,342,12.0,-999.0,97,-99.99,,,-99.99,,2013-05-26 04:02:00,
2013-05-26 00:12:00,35.0,34.0,29.75,NNW,342,12.0,-999.0,97,-99.99,,,-99.99,,2013-05-26 04:12:00,
2013-05-26 00:23:00,35.0,34.0,29.74,North,360,8.0,-999.0,98,-99.99,,,-99.99,,2013-05-26 04:23:00,
2013-05-26 00:33:00,35.0,34.0,29.73,North,357,7.0,-999.0,98,-99.99,,,-99.99,,2013-05-26 04:33:00,
2013-05-26 00:42:00,35.0,34.0,29.73,North,357,7.0,-999.0,98,-99.99,,,-99.99,,2013-05-26 04:42:00,
2013-05-26 00:52:00,36.0,36.0,29.72,North,352,7.0,-999.0,99,-99.99,,,-99.99,,2013-05-26 04:52:00,
2013-05-26 01:02:00,36.0,36.0,29.72,NNW,335,8.0,-999.0,99,-99.99,,,-99.99,,2013-05-26 05:02:00,
2013-05-26 01:12:00,36.0,36.0,29.72,NNW,335,8.0,-999.0,99,-99.99,,,-99.99,,2013-05-26 05:12:00,
2013-05-26 01:22:00,36.0,36.0,29.72,NW,322,10.0,-999.0,99,-99.99,,,-99.99,,2013-05-26 05:22:00,
2013-05-26 01:32:00,36.0,36.0,29.71,North,360,7.0,-999.0,99,-99.99,,,-99.99,,2013-05-26 05:32:00,
2013-05-26 01:42:00,36.0,36.0,29.71,North,360,7.0,-999.0,99,-99.99,,,-99.99,,2013-05-26 05:42:00,
2013-05-26 01:52:00,36.0,36.0,29.71,NNW,337,8.0,-999.0,99,-99.99,,,-99.99,,2013-05-26 05:52:00,
2013-05-26 02:01:00,36.0,36.0,29.71,North,357,8.0,-999.0,99,-99.99,,,-99.99,,2013-05-26 06:01:00,
2013-05-26 02:12:00,36.0,36.0,29.71,North,357,8.0,-999.0,99,-99.99,,,-99.99,,2013-05-26 06:12:00,
2013-05-26 02:22:00,36.0,36.0,29.70,North,360,8.0,-999.0,99,-99.99,,,-99.99,,2013-05-26 06:22:00,
2013-05-26 02:32:00,36.0,36.0,29.71,North,360,7.0,-999.0,99,-99.99,,,-99.99,,2013-05-26 06:32:00,
2013-05-26 02:42:00,36.0,36.0,29.71,North,360,7.0,-999.0,99,-99.99,,,-99.99,,2013-05-26 06:42:00,
2013-05-26 02:52:00,37.0,37.0,29.71,North,360,5.0,-999.0,99,-99.99,,,-99.99,,2013-05-26 06:52:00,
2013-05-26 03:01:00,37.0,37.0,29.71,North,356,6.0,-999.0,99,-99.99,,,-99.99,,2013-05-26 07:01:00,
2013-05-26 03:11:00,37.0,37.0,29.71,North,356,6.0,-999.0,99,-99.99,,,-99.99,,2013-05-26 07:11:00,
2013-05-26 03:22:00,37.0,37.0,29.70,NNW,328,6.0,-999.0,99,-99.99,,,-99.99,,2013-05-26 07:22:00,
2013-05-26 03:32:00,37.0,37.0,29.70,NNW,329,7.0,-999.0,99,-99.99,,,-99.99,,2013-05-26 07:32:00,
2013-05-26 03:42:00,37.0,37.0,29.70,NNW,329,7.0,-999.0,99,-99.99,,,-99.99,,2013-05-26 07:42:00,
2013-05-26 03:52:00,37.0,37.0,29.70,North,360,7.0,-999.0,99,-99.99,,,-99.99,,2013-05-26 07:52:00,
2013-05-26 04:01:00,37.0,37.0,29.70,NNW,335,8.0,-999.0,99,-99.99,,,-99.99,,2013-05-26 08:01:00,
2013-05-26 04:12:00,37.0,37.0,29.70,NNW,335,8.0,-999.0,99,-99.99,,,-99.99,,2013-05-26 08:12:00,
2013-05-26 04:21:00,37.0,37.0,29.71,North,352,2.0,-999.0,99,-99.99,,,-99.99,,2013-05-26 08:21:00,
2013-05-26 04:32:00,37.0,37.0,29.71,NW,312,5.0,-999.0,99,-99.99,,,-99.99,,2013-05-26 08:32:00,
2013-05-26 04:42:00,37.0,37.0,29.71,NW,312,5.0,-999.0,99,-99.99,,,-99.99,,2013-05-26 08:42:00,
2013-05-26 04:53:00,37.0,36.0,29.71,North,359,5.0,-999.0,98,-99.99,,,-99.99,,2013-05-26 08:53:00,
2013-05-26 05:01:00,37.0,36.0,29.71,North,360,5.0,-999.0,98,-99.99,,,-99.99,,2013-05-26 09:01:00,
2013-05-26 05:11:00,37.0,36.0,29.71,NNW,340,8.0,-999.0,98,-99.99,,,-99.99,,2013-05-26 09:11:00,
2013-05-26 05:21:00,37.0,36.0,29.71,NNW,340,8.0,-999.0,98,-99.99,,,-99.99,,2013-05-26 09:21:00,
2013-05-26 05:33:00,37.0,36.0,29.71,North,360,8.0,-999.0,98,-99.99,,,-99.99,,2013-05-26 09:33:00,
2013-05-26 05:42:00,37.0,36.0,29.71,North,360,8.0,-999.0,98,-99.99,,,-99.99,,2013-05-26 09:42:00,
2013-05-26 05:53:00,37.0,36.0,29.72,North,360,8.0,-999.0,97,-99.99,,,-99.99,,2013-05-26 09:53:00,
2013-05-26 06:02:00,37.0,36.0,29.73,North,357,7.0,-999.0,97,-99.99,,,-99.99,,2013-05-26 10:02:00,
2013-05-26 06:12:00,37.0,36.0,29.73,North,357,7.0,-999.0,97,-99.99,,,-99.99,,2013-05-26 10:12:00,
2013-05-26 06:23:00,37.0,36.0,29.73,North,360,7.0,-999.0,97,-99.99,,,-99.99,,2013-05-26 10:23:00,
2013-05-26 06:33:00,38.0,37.0,29.73,North,360,6.0,-999.0,97,-99.99,,,-99.99,,2013-05-26 10:33:00,
2013-05-26 06:42:00,38.0,37.0,29.73,North,360,7.0,-999.0,97,-99.99,,,-99.99,,2013-05-26 10:42:00,
2013-05-26 06:52:00,38.0,37.0,29.73,North,360,7.0,-999.0,97,-99.99,,,-99.99,,2013-05-26 10:52:00,
2013-05-26 07:03:00,38.0,37.0,29.74,NNW,347,8.0,-999.0,97,-99.99,,,-99.99,,2013-05-26 11:03:00,
2013-05-26 07:11:00,38.0,37.0,29.74,NNW,347,8.0,-999.0,97,-99.99,,,-99.99,,2013-05-26 11:11:00,
2013-05-26 07:22:00,38.0,37.0,29.75,North,349,6.0,-999.0,97,-99.99,,,-99.99,,2013-05-26 11:22:00,
2013-05-26 07:32:00,39.0,38.0,29.75,NNW,330,7.0,-999.0,97,-99.99,,,-99.99,,2013-05-26 11:32:00,
2013-05-26 07:42:00,39.0,38.0,29.75,NNW,330,7.0,-999.0,97,-99.99,,,-99.99,,2013-05-26 11:42:00,
2013-05-26 07:52:00,39.0,38.0,29.75,North,360,6.0,-999.0,96,-99.99,,,-99.99,,2013-05-26 11:52:00,
2013-05-26 08:02:00,40.0,38.0,29.76,North,10,8.0,-999.0,94,-99.99,,,-99.99,,2013-05-26 12:02:00,
2013-05-26 08:12:00,40.0,38.0,29.76,North,10,8.0,-999.0,94,-99.99,,,-99.99,,2013-05-26 12:12:00,
2013-05-26 08:22:00,41.0,39.0,29.76,NW,316,9.0,-999.0,91,-99.99,,,-99.99,,2013-05-26 12:22:00,
2013-05-26 08:32:00,43.0,39.0,29.76,NNW,328,8.0,-999.0,87,-99.99,,,-99.99,,2013-05-26 12:32:00,
2013-05-26 08:42:00,43.0,39.0,29.76,NNW,328,8.0,-999.0,87,-99.99,,,-99.99,,2013-05-26 12:42:00,
2013-05-26 08:52:00,43.0,38.0,29.76,North,360,13.0,-999.0,84,-99.99,,,-99.99,,2013-05-26 12:52:00,
2013-05-26 09:02:00,43.0,38.0,29.77,North,349,11.0,-999.0,83,-99.99,,,-99.99,,2013-05-26 13:02:00,
2013-05-26 09:11:00,43.0,38.0,29.77,North,349,11.0,-999.0,83,-99.99,,,-99.99,,2013-05-26 13:11:00,
2013-05-26 09:21:00,44.0,39.0,29.77,NNE,17,11.0,-999.0,81,-99.99,,,-99.99,,2013-05-26 13:21:00,
2013-05-26 09:32:00,45.0,39.0,29.77,North,349,10.0,-999.0,79,-99.99,,,-99.99,,2013-05-26 13:32:00,
2013-05-26 09:42:00,45.0,39.0,29.77,North,356,13.0,-999.0,78,-99.99,,,-99.99,,2013-05-26 13:42:00,
2013-05-26 09:52:00,45.0,39.0,29.77,North,356,13.0,-999.0,78,-99.99,,,-99.99,,2013-05-26 13:52:00,
2013-05-26 10:02:00,46.0,39.0,29.78,NW,322,13.0,-999.0,75,-99.99,,,-99.99,,2013-05-26 14:02:00,
2013-05-26 10:11:00,46.0,39.0,29.78,NW,322,13.0,-999.0,75,-99.99,,,-99.99,,2013-05-26 14:11:00,
2013-05-26 10:21:00,47.0,39.0,29.78,NW,305,13.0,-999.0,74,-99.99,,,-99.99,,2013-05-26 14:21:00,
2013-05-26 10:32:00,46.0,37.0,29.78,NNE,17,14.0,-999.0,71,-99.99,,,-99.99,,2013-05-26 14:32:00,
2013-05-26 10:42:00,47.0,38.0,29.79,NNE,24,12.0,-999.0,71,-99.99,,,-99.99,,2013-05-26 14:42:00,
2013-05-26 10:52:00,47.0,38.0,29.79,NNE,24,12.0,-999.0,71,-99.99,,,-99.99,,2013-05-26 14:52:00,
2013-05-26 11:01:00,47.0,38.0,29.79,North,360,13.0,-999.0,70,-99.99,,,-99.99,,2013-05-26 15:01:00,
2013-05-26 11:12:00,47.0,38.0,29.79,North,360,13.0,-999.0,70,-99.99,,,-99.99,,2013-05-26 15:12:00,
2013-05-26 11:22:00,48.0,38.0,29.80,NNW,347,12.0,-999.0,68,-99.99,,,-99.99,,2013-05-26 15:22:00,
2013-05-26 11:33:00,47.0,37.0,29.81,NW,325,13.0,-999.0,69,-99.99,,,-99.99,,2013-05-26 15:33:00,
2013-05-26 11:43:00,48.0,38.0,29.81,North,359,13.0,-999.0,69,-99.99,,,-99.99,,2013-05-26 15:43:00,
2013-05-26 11:53:00,48.0,38.0,29.81,North,359,13.0,-999.0,69,-99.99,,,-99.99,,2013-05-26 15:53:00,
2013-05-26 12:03:00,49.0,38.0,29.81,North,350,11.0,-999.0,66,-99.99,,,-99.99,,2013-05-26 16:03:00,
2013-05-26 12:12:00,50.0,38.0,29.82,NNW,333,14.0,-999.0,62,-99.99,,,-99.99,,2013-05-26 16:12:00,
2013-05-26 12:23:00,50.0,38.0,29.82,NNW,333,14.0,-999.0,62,-99.99,,,-99.99,,2013-05-26 16:23:00,
2013-05-26 12:33:00,51.0,39.0,29.85,North,360,13.0,-999.0,63,-99.99,,,-99.99,,2013-05-26 16:33:00,
2013-05-26 12:42:00,52.0,38.0,29.85,North,357,13.0,-999.0,59,-99.99,,,-99.99,,2013-05-26 16:42:00,
2013-05-26 12:53:00,52.0,38.0,29.85,North,357,13.0,-999.0,59,-99.99,,,-99.99,,2013-05-26 16:53:00,
2013-05-26 13:02:00,53.0,39.0,29.86,North,360,9.0,-999.0,60,-99.99,,,-99.99,,2013-05-26 17:02:00,
2013-05-26 13:11:00,53.0,39.0,29.86,North,360,9.0,-999.0,60,-99.99,,,-99.99,,2013-05-26 17:11:00,
2013-05-26 13:22:00,51.0,37.0,29.86,North,1,12.0,-999.0,59,-99.99,,,-99.99,,2013-05-26 17:22:00,
2013-05-26 13:32:00,51.0,38.0,29.87,North,7,12.0,-999.0,61,-99.99,,,-99.99,,2013-05-26 17:32:00,
2013-05-26 13:42:00,51.0,37.0,29.87,North,11,11.0,-999.0,58,-99.99,,,-99.99,,2013-05-26 17:42:00,
2013-05-26 13:52:00,51.0,37.0,29.87,North,11,11.0,-999.0,58,-99.99,,,-99.99,,2013-05-26 17:52:00,
2013-05-26 14:01:00,52.0,37.0,29.88,NNW,336,11.0,-999.0,57,-99.99,,,-99.99,,2013-05-26 18:01:00,
2013-05-26 14:12:00,52.0,37.0,29.88,NNW,336,11.0,-999.0,57,-99.99,,,-99.99,,2013-05-26 18:12:00,
2013-05-26 14:21:00,51.0,38.0,29.88,NNE,13,12.0,-999.0,60,-99.99,,,-99.99,,2013-05-26 18:21:00,
2013-05-26 14:32:00,50.0,38.0,29.89,NNW,333,11.0,-999.0,62,-99.99,,,-99.99,,2013-05-26 18:32:00,
2013-05-26 14:42:00,50.0,38.0,29.90,North,10,13.0,-999.0,64,-99.99,,,-99.99,,2013-05-26 18:42:00,
2013-05-26 14:52:00,50.0,38.0,29.90,North,10,13.0,-999.0,64,-99.99,,,-99.99,,2013-05-26 18:52:00,
2013-05-26 15:01:00,50.0,39.0,29.90,North,350,10.0,-999.0,65,-99.99,,,-99.99,,2013-05-26 19:01:00,
2013-05-26 15:11:00,50.0,39.0,29.90,North,350,10.0,-999.0,65,-99.99,,,-99.99,,2013-05-26 19:11:00,
2013-05-26 15:22:00,50.0,38.0,29.91,NNW,333,10.0,-999.0,64,-99.99,,,-99.99,,2013-05-26 19:22:00,
2013-05-26 15:32:00,52.0,39.0,29.91,NNE,13,12.0,-999.0,60,-99.99,,,-99.99,,2013-05-26 19:32:00,
2013-05-26 15:42:00,52.0,39.0,29.91,NNE,13,12.0,-999.0,60,-99.99,,,-99.99,,2013-05-26 19:42:00,
2013-05-26 15:52:00,53.0,39.0,29.91,NW,325,11.0,-999.0,59,-99.99,,,-99.99,,2013-05-26 19:52:00,
2013-05-26 16:02:00,51.0,37.0,29.93,NW,309,12.0,-999.0,58,-99.99,,,-99.99,,2013-05-26 20:02:00,
2013-05-26 16:11:00,51.0,37.0,29.93,NW,309,12.0,-999.0,58,-99.99,,,-99.99,,2013-05-26 20:11:00,
2013-05-26 16:22:00,50.0,38.0,29.93,NNW,343,11.0,-999.0,62,-99.99,,,-99.99,,2013-05-26 20:22:00,
2013-05-26 16:32:00,51.0,38.0,29.93,NNW,347,15.0,-999.0,60,-99.99,,,-99.99,,2013-05-26 20:32:00,
2013-05-26 16:42:00,51.0,38.0,29.94,North,3,12.0,-999.0,62,-99.99,,,-99.99,,2013-05-26 20:42:00,
2013-05-26 16:52:00,51.0,38.0,29.94,North,3,12.0,-999.0,62,-99.99,,,-99.99,,2013-05-26 20:52:00,
2013-05-26 17:02:00,50.0,38.0,29.95,North,360,11.0,-999.0,63,-99.99,,,-99.99,,2013-05-26 21:02:00,
2013-05-26 17:11:00,50.0,38.0,29.95,North,360,11.0,-999.0,63,-99.99,,,-99.99,,2013-05-26 21:11:00,
2013-05-26 17:22:00,50.0,39.0,29.96,WNW,295,10.0,-999.0,65,-99.99,,,-99.99,,2013-05-26 21:22:00,
2013-05-26 17:33:00,50.0,39.0,29.96,North,349,9.0,-999.0,65,-99.99,,,-99.99,,2013-05-26 21:33:00,
2013-05-26 17:43:00,50.0,39.0,29.96,North,349,9.0,-999.0,65,-99.99,,,-99.99,,2013-05-26 21:43:00,
2013-05-26 17:53:00,49.0,39.0,29.97,North,1,11.0,-999.0,67,-99.99,,,-99.99,,2013-05-26 21:53:00,
2013-05-26 18:03:00,49.0,39.0,29.98,North,360,14.0,-999.0,68,-99.99,,,-99.99,,2013-05-26 22:03:00,
2013-05-26 18:12:00,49.0,39.0,29.98,North,360,14.0,-999.0,68,-99.99,,,-99.99,,2013-05-26 22:12:00,
2013-05-26 18:23:00,49.0,39.0,29.98,NNW,337,11.0,-999.0,69,-99.99,,,-99.99,,2013-05-26 22:23:00,
2013-05-26 18:33:00,48.0,38.0,29.99,NNE,21,12.0,-999.0,69,-99.99,,,-99.99,,2013-05-26 22:33:00,
2013-05-26 18:42:00,48.0,39.0,30.01,North,360,12.0,-999.0,71,-99.99,,,-99.99,,2013-05-26 22:42:00,
2013-05-26 18:53:00,48.0,39.0,30.01,North,360,12.0,-999.0,71,-99.99,,,-99.99,,2013-05-26 22:53:00,
2013-05-26 19:02:00,47.0,38.0,30.01,NNW,344,13.0,-999.0,71,-99.99,,,-99.99,,2013-05-26 23:02:00,
2013-05-26 19:12:00,47.0,38.0,30.01,NNW,344,13.0,-999.0,71,-99.99,,,-99.99,,2013-05-26 23:12:00,
2013-05-26 19:22:00,47.0,38.0,29.99,North,360,10.0,-999.0,72,-99.99,,,-99.99,,2013-05-26 23:22:00,
2013-05-26 19:32:00,47.0,39.0,30.02,NNW,333,11.0,-999.0,73,-99.99,,,-99.99,,2013-05-26 23:32:00,
2013-05-26 19:43:00,47.0,39.0,30.02,North,359,10.0,-999.0,74,-99.99,,,-99.99,,2013-05-26 23:43:00,
2013-05-26 19:52:00,47.0,39.0,30.02,North,359,10.0,-999.0,74,-99.99,,,-99.99,,2013-05-26 23:52:00,
2013-05-26 20:02:00,47.0,39.0,30.02,North,360,10.0,-999.0,74,-99.99,,,-99.99,,2013-05-27 00:02:00,
2013-05-26 20:11:00,47.0,39.0,30.02,North,360,10.0,-999.0,74,-99.99,,,-99.99,,2013-05-27 00:11:00,
2013-05-26 20:22:00,46.0,38.0,30.02,NNE,14,9.0,-999.0,73,-99.99,,,-99.99,,2013-05-27 00:22:00,
2013-05-26 20:32:00,46.0,39.0,30.03,NW,319,8.0,-999.0,75,-99.99,,,-99.99,,2013-05-27 00:32:00,
2013-05-26 20:42:00,45.0,38.0,30.03,North,360,4.0,-999.0,77,-99.99,,,-99.99,,2013-05-27 00:42:00,
2013-05-26 20:52:00,45.0,38.0,30.03,North,360,4.0,-999.0,77,-99.99,,,-99.99,,2013-05-27 00:52:00,
2013-05-26 21:01:00,45.0,40.0,30.03,NNW,328,1.0,-999.0,81,-99.99,,,-99.99,,2013-05-27 01:01:00,
2013-05-26 21:11:00,45.0,40.0,30.03,NNW,328,1.0,-999.0,81,-99.99,,,-99.99,,2013-05-27 01:11:00,
2013-05-26 21:22:00,44.0,39.0,30.04,North,360,3.0,-999.0,82,-99.99,,,-99.99,,2013-05-27 01:22:00,
2013-05-26 21:32:00,44.0,39.0,30.03,NW,319,1.0,-999.0,83,-99.99,,,-99.99,,2013-05-27 01:32:00,
2013-05-26 21:42:00,43.0,39.0,30.04,NW,326,0.0,-999.0,85,-99.99,,,-99.99,,2013-05-27 01:42:00,
2013-05-26 21:52:00,43.0,39.0,30.04,NW,326,0.0,-999.0,85,-99.99,,,-99.99,,2013-05-27 01:52:00,
2013-05-26 22:02:00,43.0,39.0,30.04,NW,322,0.0,-999.0,86,-99.99,,,-99.99,,2013-05-27 02:02:00,
2013-05-26 22:11:00,43.0,39.0,30.04,NW,322,0.0,-999.0,86,-99.99,,,-99.99,,2013-05-27 02:11:00,
2013-05-26 22:22:00,42.0,38.0,30.04,NNW,343,0.0,-999.0,86,-99.99,,,-99.99,,2013-05-27 02:22:00,
2013-05-26 22:32:00,42.0,38.0,30.05,NNW,343,0.0,-999.0,86,-99.99,,,-99.99,,2013-05-27 02:32:00,
2013-05-26 22:42:00,42.0,39.0,30.05,NNW,343,0.0,-999.0,89,-99.99,,,-99.99,,2013-05-27 02:42:00,
2013-05-26 22:52:00,42.0,39.0,30.05,NNW,343,0.0,-999.0,89,-99.99,,,-99.99,,2013-05-27 02:52:00,
2013-05-26 23:02:00,41.0,39.0,30.05,NNW,343,0.0,-999.0,91,-99.99,,,-99.99,,2013-05-27 03:02:00,
2013-05-26 23:11:00,41.0,39.0,30.05,NNW,343,0.0,-999.0,91,-99.99,,,-99.99,,2013-05-27 03:11:00,
2013-05-26 23:21:00,41.0,39.0,30.05,NNW,343,0.0,-999.0,92,-99.99,,,-99.99,,2013-05-27 03:21:00,
2013-05-26 23:33:00,41.0,39.0,30.05,NNW,343,0.0,-999.0,92,-99.99,,,-99.99,,2013-05-27 03:33:00,
2013-05-26 23:43:00,41.0,39.0,30.05,NNW,343,0.0,-999.0,92,-99.99,,,-99.99,,2013-05-27 03:43:00,
2013-05-26 23:53:00,40.0,38.0,30.05,NNW,343,0.0,-999.0,93,-99.99,,,-99.99,,2013-05-27 03:53:00,